This is the latest recevied weather packets stored in our database for station/object KW4UJ. If no packets are shown the sender has not sent any weather packets the latest 10 day(s).
| Time | Temp. | Humidity | Pressure | Rain* | Wind** | Luminosity | Snow |
|---|---|---|---|---|---|---|---|
| 1788467584 | 33.33° C | 65% | 1014 hPa | 0 mm | - | 348 W/m² | - |
| 1788467282 | 33.33° C | 65% | 1014 hPa | 0 mm | - | 363 W/m² | - |
| 1788466980 | 33.33° C | 63% | 1013.9 hPa | 0 mm | - | 371 W/m² | - |
| 1788466678 | 33.33° C | 64% | 1013.9 hPa | 0 mm | - | 380 W/m² | - |
| 1788466374 | 33.33° C | 63% | 1014.1 hPa | 0 mm | - | 392 W/m² | - |
| 1788466072 | 33.33° C | 62% | 1014.3 hPa | 0 mm | - | 404 W/m² | - |
| 1788465768 | 33.33° C | 63% | 1014.3 hPa | 0 mm | - | 427 W/m² | - |
| 1788465463 | 33.33° C | 63% | 1014.3 hPa | 0 mm | - | 428 W/m² | - |
| 1788465159 | 33.33° C | 62% | 1014.4 hPa | 0 mm | - | 437 W/m² | - |
| 1788464859 | 33.33° C | 64% | 1014.6 hPa | 0 mm | - | 444 W/m² | - |
| 1788464555 | 33.33° C | 62% | 1014.5 hPa | 0 mm | - | 459 W/m² | - |
| 1788464250 | 33.33° C | 63% | 1014.9 hPa | 0 mm | - | 467 W/m² | - |
| 1788463945 | 32.78° C | 63% | 1014.6 hPa | 0 mm | - | 486 W/m² | - |
| 1788463642 | 32.78° C | 65% | 1014.8 hPa | 0 mm | - | 490 W/m² | - |
| 1788463337 | 32.78° C | 64% | 1015.1 hPa | 0 mm | - | 441 W/m² | - |
| 1788463033 | 32.78° C | 64% | 1015 hPa | 0 mm | - | 507 W/m² | - |
| 1788462728 | 32.78° C | 63% | 1015 hPa | 0 mm | - | 532 W/m² | - |
| 1788462423 | 32.22° C | 65% | 1015.4 hPa | 0 mm | - | 580 W/m² | - |
| 1788462122 | 32.22° C | 65% | 1015.3 hPa | 0 mm | - | 675 W/m² | - |
| 1788461817 | 31.11° C | 68% | 1015.4 hPa | 0 mm | - | 650 W/m² | - |
| 1788461512 | 30.56° C | 69% | 1015.3 hPa | 0 mm | - | 304 W/m² | - |
| 1788461209 | 30.56° C | 70% | 1015.4 hPa | 0 mm | - | 269 W/m² | - |
| 1788460920 | 30.56° C | 70% | 1015.4 hPa | 0 mm | - | 366 W/m² | - |
| 1788460603 | 30.56° C | 69% | 1015.5 hPa | 0 mm | - | 272 W/m² | - |
| 1788460298 | 30.56° C | 67% | 1015.4 hPa | 0 mm | - | 268 W/m² | - |
* Rain latest hour (hover to see other rain measurements)
** Current wind speed in m/s (hover to see current wind gust speed)